Preview of NWS' New Version of Forecast
This preview is not operational and should not be used for support decisions.

Regional Weather Roundup (RWR)

Issued by National Weather Service (NWS)

                            
000
ASUS45 KCYS 221310
RWRWY 

WYOMING REGIONAL WEATHER ROUNDUP
NATIONAL WEATHER SERVICE CHEYENNE WY
700 AM MDT MON APR 22 2019

NOTE:  "FAIR" INDICATES FEW OR NO CLOUDS BELOW 12,000 FEET
WITH NO SIGNIFICANT WEATHER AND/OR OBSTRUCTIONS TO VISIBILITY.

WYZ001-221400-
YELLOWSTONE NATIONAL PARK
  
CITY           SKY/WX    TMP DP  RH WIND       PRES   REMARKS
LK YELLOWSTONE   N/A     31  26  82 CALM      30.23R                  
W YELLOWSTONE  NOT AVBL                                               

$$
WYZ002>013-054>058-071-098>099-221400-
NORTHERN WYOMING
  
CITY           SKY/WX    TMP DP  RH WIND       PRES   REMARKS
JACKSON        CLOUDY    36  32  85 N12       30.19R WCI  28          
CODY           CLOUDY    36  34  92 N3        30.27R                  
GREYBULL       CLOUDY    42  40  92 W5        30.25R                  
WORLAND        CLOUDY    42  39  89 CALM      30.26R                  
SHERIDAN       CLOUDY    41  39  93 CALM      30.27R                  
BUFFALO        CLOUDY    41  37  86 SE5       30.26R                  
GILLETTE       CLOUDY    40  40 100 CALM      30.27R                  
HULETT         CLOUDY    39  37  93 CALM      30.28                   
NEWCASTLE      CLOUDY    37  37 100 CALM      30.27                   

$$
WYZ014>020-022>026-101>103-221400-
CENTRAL WYOMING
  
CITY           SKY/WX    TMP DP  RH WIND       PRES   REMARKS
BIG PINEY      CLOUDY    33  31  92 CALM      30.21R                  
PINEDALE       CLOUDY    34  34 100 CALM      30.20                   
DUBOIS         LGT SNOW  32  32 100 SE3       30.22                   
LANDER         CLOUDY    37  35  92 CALM      30.24R                  
RIVERTON       CLOUDY    38  35  89 N5        30.24R WCI  34          
CASPER         CLOUDY    37  37 100 E9        30.23R WCI  30          
DOUGLAS        CLOUDY    38  37  97 SE7       30.27R WCI  33          

$$
WYZ021-027>030-104>119-221400-
SOUTHERN WYOMING
  
CITY           SKY/WX    TMP DP  RH WIND       PRES   REMARKS
EVANSTON       FOG       33  31  92 N5        30.17R VSB 1/4 WCI  29  
KEMMERER       LGT SNOW  32  32 100 E18G26    30.18  WCI  20          
ROCK SPRINGS   CLOUDY    34  32  92 NE16      30.18R WCI  24          
DIXON          FAIR      31  30  96 E7        30.16R WCI  25          
RAWLINS        CLOUDY    37  34  89 NE13      30.18R WCI  29          
SARATOGA       FAIR      34  34 100 CALM      30.17R                  
LARAMIE        CLOUDY    35  34  96 NE6       30.20R WCI  30          
CHEYENNE       CLOUDY    35  35 100 N10       30.24R FOG     WCI  27  
TORRINGTON     LGT RAIN  39  37  92 N8        30.25R WCI  33          
PINE BLUFFS    CLOUDY    36  36 100 N14       30.22R WCI  27          

$$
  

000
ASUS45 KCYS 221310
RWRWY 

WYOMING REGIONAL WEATHER ROUNDUP
NATIONAL WEATHER SERVICE CHEYENNE WY
700 AM MDT MON APR 22 2019

NOTE:  "FAIR" INDICATES FEW OR NO CLOUDS BELOW 12,000 FEET
WITH NO SIGNIFICANT WEATHER AND/OR OBSTRUCTIONS TO VISIBILITY.

WYZ001-221400-
...YELLOWSTONE NATIONAL PARK...
  
CITY           SKY/WX    TMP DP  RH WIND       PRES   REMARKS
LK YELLOWSTONE   N/A     31  26  82 CALM      30.23R                  
W YELLOWSTONE  NOT AVBL                                               

$$
WYZ002>013-054>058-071-098>099-221400-
...NORTHERN WYOMING...
  
CITY           SKY/WX    TMP DP  RH WIND       PRES   REMARKS
JACKSON        CLOUDY    36  32  85 N12       30.19R WCI  28          
CODY           CLOUDY    36  34  92 N3        30.27R                  
GREYBULL       CLOUDY    42  40  92 W5        30.25R                  
WORLAND        CLOUDY    42  39  89 CALM      30.26R                  
SHERIDAN       CLOUDY    41  39  93 CALM      30.27R                  
BUFFALO        CLOUDY    41  37  86 SE5       30.26R                  
GILLETTE       CLOUDY    40  40 100 CALM      30.27R                  
HULETT         CLOUDY    39  37  93 CALM      30.28R                  
NEWCASTLE      CLOUDY    37  37 100 CALM      30.27R                  

$$
WYZ014>020-022>026-101>103-221400-
...CENTRAL WYOMING...
  
CITY           SKY/WX    TMP DP  RH WIND       PRES   REMARKS
BIG PINEY      CLOUDY    33  31  92 CALM      30.21R                  
PINEDALE       CLOUDY    34  34 100 CALM      30.20R                  
DUBOIS         LGT SNOW  32  32 100 SE3       30.22R                  
LANDER         CLOUDY    37  35  92 CALM      30.24R                  
RIVERTON       CLOUDY    38  35  89 N5        30.24R WCI  34          
CASPER         CLOUDY    37  37 100 E9        30.23R WCI  30          
DOUGLAS        CLOUDY    38  37  97 SE7       30.27R WCI  33          

$$
WYZ021-027>030-104>119-221400-
...SOUTHERN WYOMING...
  
CITY           SKY/WX    TMP DP  RH WIND       PRES   REMARKS
EVANSTON       FOG       33  31  92 N5        30.17R VSB 1/4 WCI  29  
KEMMERER       LGT SNOW  32  32 100 E18G26    30.18R WCI  20          
FORT BRIDGER   NOT AVBL                                               
ROCK SPRINGS   CLOUDY    34  32  92 NE16      30.18R WCI  24          
DIXON          FAIR      31  30  96 E7        30.16R WCI  25          
RAWLINS        CLOUDY    37  34  89 NE13      30.18R WCI  29          
SARATOGA       FAIR      34  34 100 CALM      30.17R                  
LARAMIE        CLOUDY    35  34  96 NE6       30.20R WCI  30          
CHEYENNE       CLOUDY    35  35 100 N10       30.24R FOG     WCI  27  
TORRINGTON     LGT RAIN  39  37  92 N8        30.25R WCI  33          
PINE BLUFFS    CLOUDY    36  36 100 N14       30.22R WCI  27          

$$